Weather History for Topeka, KS

Change the Weather History Date:

Friday, November 15, 2013

  Actual Average Record
Temperature  
Mean Temperature 47 °F 44 °F  
Max Temperature 60 °F 55 °F 78 °F (1950)
Min Temperature 34 °F 33 °F 9 °F (1940)
Degree Days  
Heating Degree Days 18 21  
Month to date heating degree days 284 262  
Since 1 July heating degree days 601 618  
Cooling Degree Days 0 0  
Month to date cooling degree days 0 0  
Year to date cooling degree days 1586 1420  
Moisture  
Dew Point 37 °F    
Average Humidity 62    
Maximum Humidity 77    
Minimum Humidity 46    
Precipitation  
Precipitation 0.00 in 0.06 in 4.66 in (1964)
Month to date precipitation 0.52 1.05  
Year to date precipitation 33.09 34.31  
Snow  
Snow 0.00 in 0.00 in 3.00 in (1932)
Month to date snowfall 0.0 0.2  
Year to date snowfall 24.2 11.8  
Since 1 July snowfall T 0.5  
Snow Depth 0.00 in    
Sea Level Pressure  
Sea Level Pressure 29.84 in    
Wind  
Wind Speed 8 mph (SSE)    
Max Wind Speed 20 mph    
Max Gust Speed 26 mph    
Visibility 10 miles    
Events      
T = Trace of Precipitation, MM = Missing Value Source: NWS Daily Summary

Daily Weather History Graph

Daily Weather History Graph

Search for Another Location

Airport:

Trip Planner

Search our weather history database for the weather conditions in past years. The results will help you decide how hot, cold, wet, or windy it might be!

Date:

Astronomy

Nov. 15, 2013 Rise Set
Actual Time 7:05 AM CST 5:08 PM CST
Civil Twilight 6:37 AM CST 5:36 PM CST
Nautical Twilight 6:04 AM CST 6:08 PM CST
Astronomical Twilight 5:33 AM CST 6:40 PM CST
Moon 4:04 PM CST (11/15) 5:04 AM CST (11/15)
Length of Visible Light 10h 59m
Length of Day
10h 02m
Waxing Gibbous, 96% of the Moon is Illuminated
Nov 15
Waxing Gibbous
Nov 17
Full
Nov 25
Last Quarter
Dec 2
New
Dec 9
First Quarter

Hourly Weather History & Observations

Time (CST) Temp. Windchill Dew Point Humidity Pressure Visibility Wind Dir Wind Speed Gust Speed Precip Events Conditions
12:53 AM 46.0 °F 42.5 °F 28.9 °F 51% 29.96 in 10.0 mi South 6.9 mph - N/A   Overcast
1:53 AM 46.9 °F - 28.9 °F 50% 29.94 in 10.0 mi SSW 6.9 mph - N/A   Overcast
2:53 AM 46.9 °F - 28.9 °F 50% 29.94 in 10.0 mi SSW 3.5 mph - N/A   Overcast
3:53 AM 45.0 °F - 28.9 °F 53% 29.94 in 10.0 mi Calm Calm - N/A   Overcast
4:53 AM 39.0 °F - 28.0 °F 65% 29.94 in 10.0 mi Calm Calm - N/A   Partly Cloudy
5:53 AM 37.9 °F - 28.0 °F 68% 29.95 in 10.0 mi Calm Calm - N/A   Clear
6:53 AM 36.0 °F - 28.9 °F 76% 29.95 in 10.0 mi Calm Calm - N/A   Clear
7:53 AM 35.1 °F - 28.9 °F 78% 29.95 in 10.0 mi Calm Calm - N/A   Clear
8:53 AM 45.0 °F 41.8 °F 33.1 °F 63% 29.94 in 10.0 mi South 5.8 mph - N/A   Clear
9:53 AM 50.0 °F - 36.0 °F 59% 29.92 in 10.0 mi South 11.5 mph - N/A   Clear
10:53 AM 52.0 °F - 37.0 °F 57% 29.93 in 10.0 mi SSW 11.5 mph - N/A   Clear
11:53 AM 55.9 °F - 39.0 °F 53% 29.88 in 10.0 mi South 10.4 mph - N/A   Clear
12:53 PM 57.0 °F - 39.0 °F 51% 29.84 in 10.0 mi South 12.7 mph - N/A   Clear
1:53 PM 59.0 °F - 39.0 °F 48% 29.82 in 10.0 mi SSE 13.8 mph - N/A   Clear
2:53 PM 60.1 °F - 39.9 °F 47% 29.79 in 10.0 mi SSE 12.7 mph - N/A   Clear
3:53 PM 59.0 °F - 41.0 °F 51% 29.76 in 10.0 mi SSE 13.8 mph - N/A   Clear
4:53 PM 55.9 °F - 41.0 °F 57% 29.75 in 10.0 mi SE 9.2 mph - N/A   Clear
5:53 PM 53.1 °F - 42.1 °F 66% 29.75 in 10.0 mi SE 9.2 mph - N/A   Clear
6:53 PM 51.1 °F - 42.1 °F 71% 29.74 in 10.0 mi ESE 9.2 mph - N/A   Clear
7:53 PM 52.0 °F - 44.1 °F 74% 29.73 in 10.0 mi SE 11.5 mph - N/A   Clear
8:53 PM 54.0 °F - 45.0 °F 72% 29.70 in 10.0 mi SSE 13.8 mph 21.9 mph N/A   Clear
9:53 PM 54.0 °F - 45.0 °F 72% 29.70 in 10.0 mi SSE 13.8 mph 24.2 mph N/A   Clear
10:53 PM 53.1 °F - 45.0 °F 74% 29.71 in 10.0 mi South 10.4 mph - N/A   Clear
11:53 PM 53.1 °F - 45.0 °F 74% 29.69 in 10.0 mi South 15.0 mph 24.2 mph N/A   Clear